When you browse on this site, cookies collect data to enhance your experience and personalize the content and advertising you see.
Visit our Privacy Policy to learn more. By continuing to use the site, you agree to this use of cookies and data.
  • In Österreich
  • Länderverzeichnis
  • Für 7 Tage
  • Wassertemperatur
  • Wetterkarte
  • News
  • Widgets
  • user-avatar
    Anmelden

    Stündliche Wetter Popayán

    Heute, 19 Januar, Sonntag

    Zeit Temperatur Niederschläge Wind Luftdruck Luftfeuchtigkeit
    00:00 +19°C° 0 mm 1 m/S 618 mmHg 86%
    01:00 +19°C° 0 mm 1 m/S 617 mmHg 87%
    02:00 +19°C° 0 mm 1 m/S 617 mmHg 87%
    03:00 +19°C° 0 mm 1 m/S 617 mmHg 87%
    04:00 +18°C° 0 mm 1 m/S 617 mmHg 87%
    05:00 +19°C° 0 mm 1 m/S 617 mmHg 87%
    06:00 +19°C° 0 mm 1 m/S 617 mmHg 87%
    07:00 +19°C° 0 mm 1 m/S 618 mmHg 86%
    08:00 +21°C° 0 mm 1 m/S 619 mmHg 78%
    09:00 +24°C° 0 mm 1 m/S 620 mmHg 69%
    10:00 +26°C° 0 mm 1 m/S 622 mmHg 60%
    11:00 +27°C° 0.1 mm 1 m/S 621 mmHg 58%
    12:00 +28°C° 0.1 mm 1 m/S 621 mmHg 55%
    13:00 +28°C° 0.1 mm 2 m/S 620 mmHg 53%
    14:00 +27°C° 0.6 mm 2 m/S 619 mmHg 62%
    15:00 +26°C° 0.6 mm 1 m/S 618 mmHg 71%
    16:00 +24°C° 0.6 mm 1 m/S 617 mmHg 81%
    17:00 +23°C° 1 mm 1 m/S 617 mmHg 85%
    18:00 +21°C° 1 mm 1 m/S 617 mmHg 90%
    19:00 +20°C° 1 mm 1 m/S 617 mmHg 95%
    20:00 +20°C° 0.6 mm 1 m/S 618 mmHg 94%
    21:00 +19°C° 0.6 mm 1 m/S 618 mmHg 94%
    22:00 +19°C° 0.6 mm 1 m/S 619 mmHg 93%
    23:00 +19°C° 0.3 mm 1 m/S 618 mmHg 93%

    Morgen, 20 Januar, Montag

    Zeit Temperatur Niederschläge Wind Luftdruck Luftfeuchtigkeit
    00:00 +18°C° 0.3 mm 1 m/S 618 mmHg 93%
    01:00 +18°C° 0.3 mm 1 m/S 618 mmHg 93%
    02:00 +18°C° 0.1 mm 1 m/S 617 mmHg 93%
    03:00 +18°C° 0.1 mm 1 m/S 617 mmHg 93%
    04:00 +16°C° 0.1 mm 0 m/S 617 mmHg 93%
    05:00 +18°C° 0 mm 1 m/S 617 mmHg 93%
    06:00 +18°C° 0 mm 1 m/S 618 mmHg 92%
    07:00 +18°C° 0 mm 1 m/S 618 mmHg 92%
    08:00 +20°C° 0.2 mm 1 m/S 619 mmHg 86%
    09:00 +22°C° 0.2 mm 1 m/S 620 mmHg 79%
    10:00 +24°C° 0.2 mm 1 m/S 621 mmHg 73%
    11:00 +24°C° 1.6 mm 1 m/S 621 mmHg 77%
    12:00 +24°C° 1.6 mm 1 m/S 620 mmHg 81%
    13:00 +24°C° 1.6 mm 1 m/S 620 mmHg 85%
    14:00 +24°C° 2.1 mm 1 m/S 619 mmHg 87%
    15:00 +23°C° 2.1 mm 1 m/S 618 mmHg 89%
    16:00 +20°C° 2.1 mm 0 m/S 618 mmHg 91%
    17:00 +19°C° 1.3 mm 0 m/S 618 mmHg 93%
    18:00 +19°C° 1.3 mm 0 m/S 618 mmHg 95%
    19:00 +18°C° 1.3 mm 0 m/S 618 mmHg 97%
    20:00 +17°C° 1.9 mm 0 m/S 618 mmHg 97%
    21:00 +17°C° 1.9 mm 0 m/S 619 mmHg 97%
    22:00 +17°C° 1.9 mm 0 m/S 619 mmHg 97%
    23:00 +17°C° 5 mm 0 m/S 619 mmHg 98%

    übermorgen, 21 Januar, Dienstag

    Zeit Temperatur Niederschläge Wind Luftdruck Luftfeuchtigkeit
    00:00 +17°C° 5 mm 0 m/S 618 mmHg 99%
    01:00 +17°C° 5 mm 0 m/S 618 mmHg 99%
    02:00 +17°C° 3 mm 0 m/S 618 mmHg 99%
    03:00 +16°C° 3 mm 0 m/S 617 mmHg 99%
    04:00 +18°C° 3 mm 1 m/S 617 mmHg 99%
    05:00 +18°C° 1.7 mm 1 m/S 617 mmHg 98%
    06:00 +18°C° 1.7 mm 1 m/S 618 mmHg 98%
    07:00 +18°C° 1.7 mm 1 m/S 618 mmHg 98%
    08:00 +18°C° 0.8 mm 1 m/S 618 mmHg 97%
    09:00 +17°C° 0.8 mm 0 m/S 619 mmHg 96%
    10:00 +17°C° 0.8 mm 0 m/S 620 mmHg 96%
    11:00 +18°C° 0.4 mm 0 m/S 619 mmHg 94%
    12:00 +19°C° 0.4 mm 0 m/S 619 mmHg 92%
    13:00 +21°C° 0.4 mm 1 m/S 619 mmHg 91%
    14:00 +21°C° 1.5 mm 1 m/S 618 mmHg 93%
    15:00 +20°C° 1.5 mm 1 m/S 618 mmHg 96%
    16:00 +19°C° 1.5 mm 1 m/S 617 mmHg 98%
    17:00 +19°C° 2 mm 1 m/S 617 mmHg 98%
    18:00 +16°C° 2 mm 0 m/S 617 mmHg 98%
    19:00 +16°C° 2 mm 0 m/S 617 mmHg 98%
    20:00 +16°C° 0.4 mm 0 m/S 618 mmHg 98%
    21:00 +16°C° 0.4 mm 0 m/S 618 mmHg 97%
    22:00 +16°C° 0.4 mm 0 m/S 619 mmHg 96%
    23:00 +15°C° 0.3 mm 0 m/S 618 mmHg 96%

    22 Januar, Mittwoch

    Zeit Temperatur Niederschläge Wind Luftdruck Luftfeuchtigkeit
    00:00 +15°C° 0.3 mm 0 m/S 618 mmHg 97%
    01:00 +15°C° 0.3 mm 0 m/S 618 mmHg 97%
    02:00 +15°C° 0.1 mm 0 m/S 618 mmHg 97%
    03:00 +15°C° 0.1 mm 0 m/S 617 mmHg 97%
    04:00 +15°C° 0.1 mm 0 m/S 617 mmHg 97%
    05:00 +15°C° 0.1 mm 0 m/S 617 mmHg 97%
    06:00 +15°C° 0.1 mm 0 m/S 618 mmHg 96%
    07:00 +15°C° 0.1 mm 0 m/S 618 mmHg 96%
    08:00 +17°C° 0.1 mm 0 m/S 619 mmHg 92%
    09:00 +18°C° 0.1 mm 0 m/S 619 mmHg 89%
    10:00 +21°C° 0.1 mm 1 m/S 620 mmHg 86%
    11:00 +21°C° 0.3 mm 1 m/S 619 mmHg 85%
    12:00 +21°C° 0.3 mm 1 m/S 619 mmHg 83%
    13:00 +22°C° 0.3 mm 1 m/S 619 mmHg 82%
    14:00 +22°C° 0.2 mm 1 m/S 618 mmHg 82%
    15:00 +22°C° 0.2 mm 1 m/S 618 mmHg 82%
    16:00 +22°C° 0.2 mm 1 m/S 617 mmHg 81%
    17:00 +19°C° 0.1 mm 0 m/S 617 mmHg 86%
    18:00 +17°C° 0.1 mm 0 m/S 617 mmHg 91%
    19:00 +16°C° 0.1 mm 0 m/S 617 mmHg 96%
    20:00 +16°C° 0 mm 0 m/S 617 mmHg 96%
    21:00 +16°C° 0 mm 0 m/S 618 mmHg 96%
    22:00 +16°C° 0 mm 0 m/S 618 mmHg 96%
    23:00 +16°C° 0 mm 0 m/S 618 mmHg 96%

    23 Januar, Donnerstag

    Zeit Temperatur Niederschläge Wind Luftdruck Luftfeuchtigkeit
    00:00 +16°C° 0 mm 0 m/S 618 mmHg 95%
    01:00 +16°C° 0 mm 0 m/S 618 mmHg 94%
    02:00 +16°C° 0 mm 0 m/S 617 mmHg 94%
    03:00 +16°C° 0 mm 0 m/S 617 mmHg 94%
    04:00 +15°C° 0 mm 0 m/S 617 mmHg 94%
    05:00 +15°C° 0 mm 0 m/S 617 mmHg 94%
    06:00 +16°C° 0 mm 0 m/S 618 mmHg 93%
    07:00 +16°C° 0 mm 0 m/S 618 mmHg 93%
    08:00 +18°C° 0.1 mm 0 m/S 619 mmHg 86%
    09:00 +21°C° 0.1 mm 1 m/S 620 mmHg 79%
    10:00 +23°C° 0.1 mm 1 m/S 621 mmHg 72%
    11:00 +24°C° 0.5 mm 1 m/S 620 mmHg 73%
    12:00 +24°C° 0.5 mm 1 m/S 620 mmHg 74%
    13:00 +24°C° 0.5 mm 2 m/S 619 mmHg 76%
    14:00 +23°C° 1.4 mm 1 m/S 618 mmHg 80%
    15:00 +23°C° 1.4 mm 1 m/S 618 mmHg 85%
    16:00 +22°C° 1.4 mm 1 m/S 617 mmHg 89%
    17:00 +21°C° 0.7 mm 1 m/S 617 mmHg 92%
    18:00 +18°C° 0.7 mm 0 m/S 617 mmHg 95%
    19:00 +17°C° 0.7 mm 0 m/S 617 mmHg 97%
    20:00 +16°C° 0.1 mm 0 m/S 617 mmHg 97%
    21:00 +16°C° 0.1 mm 0 m/S 618 mmHg 97%
    22:00 +16°C° 0.1 mm 0 m/S 618 mmHg 97%
    23:00 +16°C° 0.1 mm 0 m/S 618 mmHg 97%

    24 Januar, Freitag

    Zeit Temperatur Niederschläge Wind Luftdruck Luftfeuchtigkeit
    00:00 +16°C° 0.1 mm 0 m/S 618 mmHg 97%
    01:00 +16°C° 0.1 mm 0 m/S 617 mmHg 97%
    02:00 +16°C° 0.2 mm 0 m/S 617 mmHg 97%
    03:00 +15°C° 0.2 mm 0 m/S 617 mmHg 97%
    04:00 +15°C° 0.2 mm 0 m/S 616 mmHg 97%
    05:00 +16°C° 0.1 mm 0 m/S 617 mmHg 97%
    06:00 +16°C° 0.1 mm 0 m/S 617 mmHg 96%
    07:00 +16°C° 0.1 mm 0 m/S 618 mmHg 96%
    08:00 +18°C° 0.1 mm 0 m/S 619 mmHg 89%
    09:00 +20°C° 0.1 mm 0 m/S 620 mmHg 83%
    10:00 +23°C° 0.1 mm 1 m/S 621 mmHg 76%
    11:00 +23°C° 0.8 mm 1 m/S 620 mmHg 79%
    12:00 +23°C° 0.8 mm 1 m/S 620 mmHg 82%
    13:00 +23°C° 0.8 mm 1 m/S 619 mmHg 84%
    14:00 +23°C° 1.7 mm 1 m/S 618 mmHg 87%
    15:00 +23°C° 1.7 mm 1 m/S 618 mmHg 89%
    16:00 +22°C° 1.7 mm 1 m/S 617 mmHg 92%
    17:00 +21°C° 1 mm 1 m/S 617 mmHg 94%
    18:00 +18°C° 1 mm 0 m/S 617 mmHg 96%
    19:00 +17°C° 1 mm 0 m/S 617 mmHg 98%
    20:00 +17°C° 0.3 mm 0 m/S 618 mmHg 97%
    21:00 +16°C° 0.3 mm 0 m/S 618 mmHg 97%
    22:00 +16°C° 0.3 mm 0 m/S 619 mmHg 96%
    23:00 +16°C° 0.1 mm 0 m/S 618 mmHg 96%
    Mehr zeigen